Weather in Kazarovo

Russia / Tyumen Oblast     57°13′03″N   65°32′59″E
temp.,
°C
wind,
m/s
gust,
m/s
humid.,
%
clouds,
%
prec.,
mm/h
press.,
hPa
HPBL,
m
7 may, fri
fri723:00+7wnw712510 0.0 1013719
02:00+6wnw511560 0.0 1015504
05:00+4w410670 0.0 1017261
08:00+9wnw59500 0.0 1018696
11:00+15w68355 0.0 10181250
14:00+18w68295 0.0 10181664
17:00+20w57315 0.0 10181855
20:00+16sw34475 0.0 101850
8 may, sat
sat823:00+13sw46515 0.0 101974
02:00+11wsw47585 0.0 1019117
05:00+10wsw345943 0.0 101951
08:00+16sw344571 0.0 1019242
11:00+20ssw223260 0.0 10191082
14:00+22se222722 0.0 10172695
17:00+22se2225100 0.0 10162811
20:00+18ssw3339100 0.0 101741
9 may, sun
sun923:00+16n3546100 0.0 1017109
02:00+14ne335768 0.0 101746
05:00+13ene346351 0.0 101761
08:00+17ene465298 0.0 1018311
11:00+21e453392 0.0 10181200
14:00+23e5726100 0.0 10172957
17:00+21ene4734100 0.0 1018570
20:00+17ene3656100 0.6 1019164
10 may, mon
mon1023:00+16ne3756100 0.7 1020115
02:00+15ene3662100 0.0 1021141
05:00+13e3566100 0.0 102276
08:00+16e34507 0.0 1023345
11:00+20nne25354 0.0 10232328
14:00+22nne57295 0.0 10222794
17:00+22nne67273 0.0 10212393
20:00+18ne34400 0.0 102248
11 may, tue
tue1123:00+14ene22470 0.0 102220
02:00+12ene22520 0.0 102210
05:00+11n11580 0.0 102210
08:00+16n22465 0.0 1022295
11:00+20nne2333100 0.0 10221207
14:00+22nnw2431100 0.0 10211949
17:00+23e1329100 0.0 10202269
20:00+16nnw7127064 0.1 1022460